* Astronomy

Members Login
Username 
 
Password 
    Remember Me  
Post Info TOPIC: Delta-2 rocket body re-entry


L

Posts: 131433
Date:
RE: Delta-2 rocket body re-entry
Permalink  
 


Update:
The Delta-2 rocket body re-entered the Earths atmosphere on  the 29th November, 2011 @ 16:21 GMT  ± 1 minute.

Inclination: 107.30°
Revolution Number: 507
Predicted Location:  37°S, 160°E



__________________


L

Posts: 131433
Date:
Permalink  
 

DELTA 2 RB
1 37856U 11061H   11332.17204840  .04138278  91639-5  23324-3 0  1001
2 37856 107.3042 308.0779 0112599 260.5921 098.3198 16.21551808  4812


__________________


L

Posts: 131433
Date:
Permalink  
 

Update:
The Delta-2 rocket body is predicted to re-enter the Earths atmosphere on  the 29th November, 2011 @ 14:03 GMT  ± 24 hours.

DELTA 2 RB
1 37856U 11061H   11331.49219942  .03236219  90645-5  27038-3 0   974
2 37856 107.2997 306.2898 0128116 262.2805 096.4282 16.16047861  4708

Period:       89.43 minutes
Inclination: 107.30°
Apogee:     343 km
Perigee:     150 km
Revolution Number: 505
Predicted Location:  6.6°N, 31.9°E



__________________


L

Posts: 131433
Date:
Permalink  
 

Update:
The Delta-2 rocket body is predicted to re-enter the Earths atmosphere on  the 29th November, 2011 @ 15:21 GMT  ± 48 hours.

DELTA 2 RB
1 37856U 11061H   11330.56186296  .02564620  89607-5  31894-3 0   943
2 37856 107.3009 303.8677 0145793 264.4151 094.0537 16.10135438  4551

Period:       89.80 minutes
Inclination: 107.30°
Apogee:     374 km
Perigee:     155 km
Revolution Number: 505
Predicted Location:  33.1°S, 26.1°E



__________________


L

Posts: 131433
Date:
Permalink  
 

Update:
The Delta-2 rocket body is predicted to re-enter the Earths atmosphere on  the 29th November, 2011 @ 08:52 GMT  ± 48 hours.

DELTA 2 RB
1 37856U 11061H   11329.81545668  .02532043  88945-5  40659-3 0   892
2 37856 107.3045 301.9370 0157199 265.7024 093.2046 16.06376617  4430

Period:       89.80 minutes
Inclination: 107.30°
Apogee:     374 km
Perigee:     155 km
Revolution Number: 502
Predicted Location:  9.2°S, 288.6°E



__________________


L

Posts: 131433
Date:
Permalink  
 

Update:
The Delta-2 rocket body is predicted to re-enter the Earths atmosphere on (or after) the 26th November, 2011 @ --:-- GMT  ± -- hours.

DELTA 2 RB
1 37856U 11061H   11328.87981418  .02030042  88130-5  42553-3 0   853
2 37856 107.3054 299.5247 0172528 267.5549 090.6605 16.01710077  4282

Period:       90.01 minutes
Inclination: 107.30°
Apogee:     393 km
Perigee:     157 km
Revolution Number: -
Predicted Location:  -



__________________


L

Posts: 131433
Date:
Permalink  
 

Update:
The Delta-2 rocket body is predicted to re-enter the Earths atmosphere on (or after) the 26th November, 2011 @ --:-- GMT  ± -- hours.

DELTA 2 RB
1 37856U 11061H   11327.62860908  .01893773  87233-5  58296-3 0   812
2 37856 107.3021 296.3349 0187385 271.7807 086.2161 15.96606229  4087

Period:       92.42 minutes
Inclination: 107.31°
Apogee:     429 km
Perigee:     161 km
Revolution Number: -
Predicted Location:  -



__________________


L

Posts: 131433
Date:
Permalink  
 

A Delta-2 rocket body that was launched on the 28th October, 2011, from the Vandenberg military air base in California, for the NPP Satellite mission is predicted to re-enter the Earths atmosphere on the 19th November, 2011 @ --:-- GMT  ± -- hours.

DELTA 2 RB
1 37856U 11061H   11311.87059548  .01013350  80201-5  80680-3 0   299
2 37856 107.3107 257.4686 0329596 310.4817 046.8088 15.56082053  1602

Period:       92.58 minutes
Inclination: 107.31°
Apogee:     626 km
Perigee:     176 km
Revolution Number: -
Predicted Location:  -



__________________
Page 1 of 1  sorted by
 
Quick Reply

Please log in to post quick replies.



Create your own FREE Forum
Report Abuse
Powered by ActiveBoard